Regional Weather Roundup
Issued by NWS Goodland, KS

Home | Current Version | Previous Version | Graphics & Text | Print | Product List | Glossary On
Versions: 1 2 3 4 5 6 7 8 9 10 11 12 13 14 15 16 17 18 19 20 21 22 23 24 25 26 27 28 29 30 31 32 33 34 35 36 37 38 39 40 41 42 43 44 45 46 47 48 49 50
000
ASUS43 KGLD 110259
RWRGLD

GOODLAND FORECAST AREA HOURLY WEATHER ROUNDUP
NATIONAL WEATHER SERVICE GOODLAND KS
800 PM MST SUN DEC 10 2017

...OFFICIAL OBSERVATIONS...

CITY           SKY/WX    TMP DP  RH WIND       PRES   REMARKS
GOODLAND KS    CLEAR     37   1  22 W13       30.26S
HILL CITY KS   CLEAR     41  14  33 W7        30.20F
IMPERIAL NEB   CLOUDY    41   4  21 W10       30.23S
MCCOOK NEB     CLOUDY    35  10  35 W13       30.20S
AKRON CO       CLOUDY    37  -4  17 W10       30.28F
BURLINGTON CO  CLEAR     28   1  31 W10       30.29F WCI  19
LIMON CO       CLOUDY    15  -5  40 N9        30.33F
$$

...UNOFFICIAL OBSERVATIONS...

CITY           SKY/WX    TMP DP  RH WIND       PRES   REMARKS
LENORA KS        N/A     45  32  60 W8          N/A
NORTON KS      CLEAR     37   1  22 SW8       30.18
SHARON SPRINGS   N/A     31   4  31 SW12        N/A
TRENTON NEB      N/A     44  32  63 W8          N/A
KIT CARSON CO    N/A     34   2  25 CALM        N/A
YUMA CO        FAIR      30   1  29 W10       30.27S
$$



USA.gov is the U.S. government's official web portal to all federal, state and local government web resources and services.